CW8822 Caguas PR US current weather conditions

sailwx.info

Wind from 163

Air temperature 22.8° C
Dewpoint 21.9° C

Last reported at 2014-Sep-01 10:47 UTC.
Time now 2014-Sep-01 11:21 UTC

Location: N 18°12' W 066°01'.
View on Google Maps.

See reports from other nearby stations

  
Tides and Currents Weather Stations Pressure Air Temp Water Temp Dewpoint Dewpoint Depression Visibility Wind Speed Wind Dir Waves Ship Positions
date/time (UTC)wind fromknots sea level pressurealtimeterstation pressurevisibilityair tempwater tempwave heightnotes
2014-Sep-01 10:47 163 22.8
2014-Sep-01 10:33 265 0 gusting 2 22.8
2014-Sep-01 10:17 257 22.8
2014-Sep-01 10:02 231 22.2
2014-Sep-01 09:46 148 22.2
2014-Sep-01 09:32 148 22.2
2014-Sep-01 09:17 148 1 gusting 2 22.2
2014-Sep-01 09:01 148 22.2
2014-Sep-01 08:47 148 22.8
2014-Sep-01 08:31 148 22.8
2014-Sep-01 08:17 141 22.8
2014-Sep-01 08:02 141 22.8
2014-Sep-01 07:46 141 1 gusting 3 22.2
2014-Sep-01 07:32 141 0 gusting 2 22.8
2014-Sep-01 07:16 141 0 gusting 1 23.3
2014-Sep-01 07:01 141 23.3
2014-Sep-01 06:46 141 23.3
2014-Sep-01 06:30 141 23.3
2014-Sep-01 06:16 141 23.3
2014-Sep-01 06:01 141 23.3
2014-Sep-01 05:45 141 23.3
2014-Sep-01 05:31 141 23.3
2014-Sep-01 05:15 141 0 gusting 3 23.3
2014-Sep-01 05:01 141 23.3
2014-Sep-01 04:45 141 23.3
2014-Sep-01 04:31 141 23.3
2014-Sep-01 04:15 141 23.9
2014-Sep-01 03:59 141 23.9
2014-Sep-01 03:45 141 23.9
2014-Sep-01 03:30 148 0 gusting 4 23.9
2014-Sep-01 03:15 153 23.9
2014-Sep-01 02:59 153 0 gusting 5 24.4
2014-Sep-01 02:45 146 24.4
2014-Sep-01 02:30 152 24.4
2014-Sep-01 02:15 104 24.4
2014-Sep-01 01:59 104 25.0
2014-Sep-01 01:45 104 25.0
2014-Sep-01 01:30 104 25.0
2014-Sep-01 01:14 104 24.4
2014-Sep-01 00:59 104 25.0
2014-Sep-01 00:46 104 25.0
2014-Sep-01 00:29 104 25.0
2014-Sep-01 00:14 104 25.0
2014-Sep-01 00:00 104 25.0
2014-Aug-31 23:44 104 25.0
2014-Aug-31 23:29 104 25.6
2014-Aug-31 23:15 103 25.6
2014-Aug-31 22:58 104 25.6
2014-Aug-31 22:44 059 25.6
2014-Aug-31 22:29 306 26.1
2014-Aug-31 22:13 186 26.1
2014-Aug-31 21:59 063 1 gusting 7 26.1
2014-Aug-31 21:43 101 26.7
2014-Aug-31 21:28 271 27.2
2014-Aug-31 21:12 071 0 gusting 4 27.2
2014-Aug-31 20:58 060 1 gusting 6 26.7
2014-Aug-31 20:43 066 1 gusting 4 26.1
2014-Aug-31 20:27 064 26.1
2014-Aug-31 20:13 093 0 gusting 4 26.1
2014-Aug-31 19:58 096 0 gusting 6 26.7
2014-Aug-31 19:42 099 1 gusting 9 25.6
2014-Aug-31 19:28 136 2 gusting 9 26.1
2014-Aug-31 19:13 078 2 gusting 8 26.1
2014-Aug-31 18:57 115 1 gusting 6 28.3
2014-Aug-31 18:43 095 27.8
2014-Aug-31 18:28 031 2 gusting 10 27.8
2014-Aug-31 18:12 058 1 gusting 11 27.8
2014-Aug-31 17:57 034 1 gusting 8 28.9
2014-Aug-31 17:43 172 2 gusting 9 29.4
2014-Aug-31 17:27 131 2 gusting 8 29.4
2014-Aug-31 17:12 103 3 gusting 8 28.9
2014-Aug-31 16:56 168 2 gusting 7 29.4
2014-Aug-31 16:42 103 3 gusting 8 29.4
2014-Aug-31 16:27 101 2 gusting 11 28.9
2014-Aug-31 16:11 054 2 gusting 9 28.9
2014-Aug-31 15:57 123 2 gusting 7 28.9
2014-Aug-31 15:41 024 1 gusting 13 28.3
2014-Aug-31 15:27 086 1 gusting 8 28.3
2014-Aug-31 15:12 092 3 gusting 11 27.8
2014-Aug-31 14:56 114 2 gusting 12 28.3
2014-Aug-31 14:41 040 2 gusting 8 27.8
2014-Aug-31 14:27 190 0 gusting 6 28.3
2014-Aug-31 14:11 078 1 gusting 6 27.8
2014-Aug-31 13:56 145 0 gusting 6 27.8
2014-Aug-31 13:42 090 27.8
2014-Aug-31 13:26 057 26.7
2014-Aug-31 13:11 095 26.7
2014-Aug-31 12:55 094 1 gusting 6 25.6
2014-Aug-31 12:41 078 25.6
2014-Aug-31 12:25 070 25.6
2014-Aug-31 12:11 070 25.6
2014-Aug-31 11:55 142 25.6
2014-Aug-31 11:40 142 24.4
2014-Aug-31 11:26 142 23.9
2014-Aug-31 11:10 104 0 gusting 6 23.3
2014-Aug-31 10:55 137 23.3
2014-Aug-31 10:39 137 0 gusting 2 23.3
2014-Aug-31 10:25 062 23.3
2014-Aug-31 10:10 328 22.8
2014-Aug-31 09:54 072 22.8
2014-Aug-31 09:40 072 22.8
2014-Aug-31 09:24 071 22.8
2014-Aug-31 09:09 071 22.8
2014-Aug-31 08:55 072 22.8
2014-Aug-31 08:39 072 22.8
2014-Aug-31 08:24 071 0 gusting 1 22.8
2014-Aug-31 08:08 072 0 gusting 4 22.8
2014-Aug-31 07:54 143 23.3
2014-Aug-31 07:40 143 23.3
2014-Aug-31 07:24 143 22.8
2014-Aug-31 07:09 143 23.3
2014-Aug-31 06:55 143 23.3
2014-Aug-31 06:38 143 23.3
2014-Aug-31 06:24 143 23.3
2014-Aug-31 06:08 143 23.3
2014-Aug-31 05:53 143 23.3
2014-Aug-31 05:39 143 23.3
2014-Aug-31 05:23 143 23.3
2014-Aug-31 05:08 143 1 gusting 3 23.3
2014-Aug-31 04:52 143 23.3
2014-Aug-31 04:38 143 23.3
2014-Aug-31 04:24 143 23.9
2014-Aug-31 04:08 148 23.9
2014-Aug-31 03:53 148 23.9
2014-Aug-31 03:37 148 23.9
2014-Aug-31 03:22 150 23.9
2014-Aug-31 03:08 117 2 gusting 6 23.9
2014-Aug-31 02:53 109 23.9
2014-Aug-31 02:37 163 0 gusting 6 23.9
2014-Aug-31 02:23 099 23.9
2014-Aug-31 02:08 099 23.9
2014-Aug-31 01:52 108 24.4
2014-Aug-31 01:37 108 24.4
2014-Aug-31 01:22 108 24.4
2014-Aug-31 01:07 108 24.4
2014-Aug-31 00:51 108 24.4
2014-Aug-31 00:36 108 24.4
2014-Aug-31 00:21 108 24.4
2014-Aug-31 00:06 108 24.4
2014-Aug-30 23:51 105 24.4
2014-Aug-30 23:36 130 0 gusting 4 24.4
2014-Aug-30 23:22 145 24.4
2014-Aug-30 23:07 144 1 gusting 6 24.4
2014-Aug-30 22:51 131 1 gusting 4 25.0
2014-Aug-30 22:36 124 1 gusting 3 25.0
2014-Aug-30 22:22 129 25.6
2014-Aug-30 22:06 138 1 gusting 6 25.6
2014-Aug-30 21:51 141 2 gusting 6 25.6
2014-Aug-30 21:37 136 1 gusting 7 25.6
2014-Aug-30 21:21 169 1 gusting 6 25.6
2014-Aug-30 21:06 139 0 gusting 8 25.6
2014-Aug-30 20:51 140 2 gusting 10 25.6
2014-Aug-30 20:37 134 0 gusting 8 25.6
2014-Aug-30 20:20 116 25.6
2014-Aug-30 20:06 086 0 gusting 6 25.6
2014-Aug-30 19:51 113 1 gusting 8 25.6
2014-Aug-30 19:37 129 2 gusting 8 25.0
2014-Aug-30 19:20 136 4 gusting 8 25.0
2014-Aug-30 19:06 141 2 gusting 9 27.2
2014-Aug-30 18:51 128 1 gusting 8 27.2
2014-Aug-30 18:35 130 3 gusting 6 27.2
2014-Aug-30 18:21 149 1 gusting 6 26.1
2014-Aug-30 18:06 146 1 gusting 5 25.0
2014-Aug-30 17:50 157 3 gusting 10 24.4
2014-Aug-30 17:35 117 1 gusting 6 24.4
2014-Aug-30 17:21 094 1 gusting 9 25.0
2014-Aug-30 17:06 159 4 gusting 8 25.0
2014-Aug-30 16:50 095 1 gusting 10 26.1
2014-Aug-30 16:35 139 0 gusting 7 29.4
2014-Aug-30 16:20 140 2 gusting 6 28.9
2014-Aug-30 16:04 140 1 gusting 8 27.8
2014-Aug-30 15:50 159 2 gusting 8 28.3
2014-Aug-30 15:35 205 2 gusting 6 30.0
2014-Aug-30 15:19 045 0 gusting 7 29.4
2014-Aug-30 15:05 027 0 gusting 8 29.4
2014-Aug-30 14:50 069 0 gusting 12 29.4
2014-Aug-30 14:34 094 0 gusting 8 29.4
2014-Aug-30 14:19 054 2 gusting 8 28.9
2014-Aug-30 14:05 005 2 gusting 6 28.3
2014-Aug-30 13:49 055 2 gusting 6 28.3
2014-Aug-30 13:35 070 0 gusting 6 27.8
2014-Aug-30 13:18 069 0 gusting 4 27.8
2014-Aug-30 13:04 080 27.2
2014-Aug-30 12:48 080 26.7
2014-Aug-30 12:34 080 26.1
2014-Aug-30 12:18 080 25.6
2014-Aug-30 12:03 094 25.0
2014-Aug-30 11:49 094 24.4
2014-Aug-30 11:33 094 23.9
2014-Aug-30 11:19 094 23.3
2014-Aug-30 11:03 178 2 gusting 3 22.8